SCP
0 0 0 0 0 0 0 0 0 0 0 0 0 0 0 0 0 0 0 0 0 0 0 0 0 0 0 0 0 0 0 0 0 0 0 0 0 0 0 -0 -0 -0 -0
0 0 0 0 0 0 0 0 0 0 0 0 0 0 0 0 0 0 0 0 0 0 0 0 0 0 0 0 0 0 0 0 0 0 0 0 0 0 0 0 -0 -0 -0
0 0 0 0 0 0 0 0 0 0 0 0 0 0 0 0 0 0 0 0 0 0 0 0 0 0 0 0 0 0 0 0 0 0 0 0 0 0 0 0 0 -0 -0
0 0 0 0 0 0 0 0 0 0 0 0 0 0 0 0 0 0 0 0 0 0 0 0 0 0 0 0 0 0 0 0 0 0 0 0 0 0 0 0 0 0 0
0 0 0 0 0 0 0 0 0 0 0 0 0 0 0 0 0 0 0 0 0 0 0 0 0 0 0 0 0 0 0 0 0 0 0 0 0 0 0 0 0 0 0
0 0 0 0 0 0 0 0 0 0 0 0 0 0 0 0 0 0 0 0 0 0 0 0 0 0 0 0 0 0 0 0 0 0 0 0 0 0 0 0 0 0 0
0 0 0 0 0 0 0 0 0 0 0 0 0 0 0 0 0 0 0 0 0 0 0 0 0 0 0 0 0 0 0 0 0 0 0 0 0 0 0 0 0 0 0
0 0 0 0 0 0 0 0 0 0 0 0 0 0 0 0 0 0 0 0 0 0 0 0 0 0 0 0 0 0 0 0 0 0 0 0 0 0 0 0 0 0 0
0 0 0 0 0 0 0 0 0 0 0 0 0 0 0 0 0 0 0 0 0 0 0 0 0 0 0 0 0 0 0 0 0 0 0 0 0 0 0 0 0 0 0
0 0 0 0 0 0 0 0 0 0 0 0 0 0 0 0 0 0 0 0 0 0 0 0 0 0 0 0 0 0 0 0 0 0 0 0 0 0 0 0 0 0 0
0 0 0 0 0 0 0 0 0 0 0 0 0 0 0 0 0 0 0 0 0 0 0 0 0 0 0 0 0 0 0 0 0 0 0 0 0 0 0 0 0 0 0
0 0 0 0 0 0 0 0 0 0 0 0 0 0 0 0 0 0 0 0 0 0 0 0 0 0 0 0 0 0 0 0 0 0 0 0 0 0 0 0 0 0 0
0 0 0 0 0 0 0 0 0 0 0 0 0 0 0 0 0 0 0 0 0 0 0 0 0 0 0 0 0 0 0 0 0 0 0 0 0 0 0 0 0 0 0
0 0 0 0 0 0 0 0 0 0 0 0 0 0 0 0 0 0 0 0 0 0 0 0 0 0 0 0 0 0 0 0 0 0 0 0 0 0 0 0 0 0 0
0 0 0 0 0 0 0 0 0 0 0 0 0 0 0 0 0 0 0 0 0 0 0 0 0 0 0 0 0 0 0 0 0 0 0 0 0 0 0 0 0 0 0
0 0 0 0 0 0 0 0 0 0 0 0 0 0 0 0 0 0 0 0 0 0 0 0 0 0 0 0 0 0 0 0 0 0 0 0 0 0 0 0 0 0 0
0 0 0 0 0 0 0 0 0 0 0 0 0 0 0 0 0 0 0 0 0 0 0 0 0 0 0 0 0 0 0 0 0 0 0 0 0 0 0 0 0 0 0
0 0 0 0 0 0 0 0 0 0 0 0 0 0 0 0 0 0 0 0 0 0 0 0 0 0 0 0 0 0 0 0 0 0 0 0 0 0 0 0 0 0 0
0 0 0 0 0 0 0 0 0 0 0 0 0 0 0 0 0 0 0 0 0 0 0 0 0 0 0 0 0 0 0 0 0 0 0 0 0 0 0 0 0 0 0
0 0 0 0 0 0 0 0 0 0 0 0 0 0 0 0 0 0 0 0 0 0 0 0 0 0 0 0 0 0 0 0 0 0 0 0 0 0 0 0 0 0 0
0 0 0 0 0 0 0 0 0 0 0 0 0 0 0 0 0 0 0 0 0 0 0 0 0 0 0 0 0 0 0 0 0 0 0 0 0 0 0 0 0 0 0
0 0 0 0 0 0 0 0 0 0 0 0 0 0 0 0 0 0 0 0 0 0 0 0 0 0 0 0 0 0 0 0 0 0 0 0 0 0 0 0 0 0 0
0 0 0 0 0 0 0 0 0 0 0 0 0 0 0 0 0 0 0 0 0 0 0 0 0 0 0 0 0 0 0 0 0 0 0 0 0 0 0 0 0 0 0
0 0 0 0 0 0 0 0 0 0 0 0 0 0 0 0 0 0 0 0 0 0 0 0 0 0 0 0 0 0 0 0 0 0 0 0 0 0 0 0 0 0 0
0 0 0 0 0 0 0 0 0 0 0 0 0 0 0 0 0 0 0 0 0 0 0 0 0 0 0 0 0 0 0 0 0 0 0 0 0 0 0 0 0 0 0
0 0 0 0 0 0 0 0 0 0 0 0 0 0 0 0 0 0 0 0 0 0 0 0 0 0 0 0 0 0 0 0 0 0 0 0 0 0 0 0 0 0 0
Wind_Speed
10 9 9 8 7 7 6 6 5 4 3 2 2 2 3 4 4 4 5 6 6 7 7 8 9 9 8 8 8 9 9 10 15 15 13 14 18 18 16 14 14 15 13
11 10 9 8 8 7 6 6 5 4 3 2 0 1 2 3 4 5 6 6 7 8 8 9 10 8 11 10 9 10 10 11 14 19 16 14 17 17 18 18 15 13 14
11 11 10 9 9 8 7 6 5 4 3 2 1 1 2 4 5 5 6 7 7 8 9 10 10 11 11 10 11 11 11 11 12 15 17 14 13 13 17 17 17 14 14
12 12 12 11 10 9 8 7 6 5 4 3 2 2 3 4 5 5 7 8 8 9 9 10 11 11 12 13 12 13 12 13 13 14 15 14 13 14 14 14 14 12 12
14 13 13 11 9 8 8 7 6 5 4 3 3 3 4 4 4 6 8 9 9 10 10 10 11 13 16 15 12 13 13 12 12 13 14 14 13 12 12 12 14 14 14
15 14 12 10 9 9 8 7 7 6 5 4 4 4 5 4 6 10 10 9 10 10 11 11 11 12 15 18 20 20 19 16 15 14 14 15 16 15 13 12 13 15 15
12 10 9 10 10 10 9 8 8 7 6 6 5 5 6 6 9 11 12 11 11 10 11 11 10 10 14 14 16 20 19 21 22 19 18 18 18 16 16 16 15 16 16
12 11 10 11 11 10 9 9 8 6 6 6 6 6 6 7 9 11 13 11 10 10 11 12 13 14 13 16 16 17 17 17 19 17 17 19 18 18 18 18 18 18 18
12 12 12 12 11 11 11 10 8 6 6 6 5 6 6 7 9 11 12 8 8 10 11 12 13 15 19 23 19 18 18 17 20 25 27 28 30 31 26 17 16 15 16
13 12 10 11 11 12 11 9 7 6 6 5 6 6 7 7 10 11 11 7 8 9 10 11 14 17 21 24 19 18 19 18 17 18 20 22 22 22 26 19 15 15 16
8 7 8 9 10 10 8 7 6 6 5 6 6 6 7 8 10 11 10 7 8 9 10 10 10 19 24 26 24 18 21 22 17 16 15 15 14 13 13 13 13 13 15
7 8 8 8 8 7 8 7 6 6 6 6 6 7 6 6 8 9 11 12 12 10 10 10 12 21 25 27 21 21 26 21 11 11 11 12 12 12 12 13 15 16 16
7 8 8 8 7 7 8 7 6 6 6 6 5 5 4 4 6 10 11 12 14 10 10 15 18 22 23 17 18 22 16 10 9 10 10 11 11 13 13 13 15 15 18
8 8 7 8 8 7 6 6 6 6 6 6 6 6 5 4 5 5 5 7 10 9 7 8 14 16 14 13 12 11 8 8 9 10 11 11 11 12 12 11 12 12 13
8 7 7 7 7 7 7 6 7 7 7 6 6 5 5 5 6 9 8 7 6 5 5 4 6 7 7 8 8 8 8 9 9 9 10 11 12 12 12 11 11 12 13
7 7 6 6 5 5 5 6 11 12 13 16 15 12 10 12 13 13 13 13 9 8 4 4 5 6 7 8 9 10 9 9 9 10 11 11 12 12 13 12 12 12 13
7 6 5 5 5 5 5 5 5 7 11 13 14 15 14 13 13 12 12 8 5 4 2 4 5 6 7 7 8 9 10 10 10 10 11 11 12 12 12 13 12 12 13
5 5 4 4 4 4 5 5 5 5 5 5 6 9 11 12 12 11 8 4 2 1 3 4 5 6 7 7 8 9 9 10 10 10 11 11 12 12 13 13 13 14 14
4 3 3 3 3 4 4 4 5 6 6 6 5 5 6 7 9 9 3 2 3 4 4 5 5 6 7 7 8 8 9 10 11 11 11 12 12 12 12 13 13 17 16
3 3 3 3 3 4 4 5 5 6 6 6 6 5 3 3 4 4 3 3 4 5 5 5 6 6 7 7 8 8 9 10 11 10 11 12 12 12 13 15 14 14 13
2 3 4 3 4 4 4 5 5 6 6 6 6 7 9 6 5 5 4 4 5 5 5 6 6 7 7 7 7 8 10 10 10 10 11 11 12 12 12 12 13 13 13
2 2 3 3 4 4 5 5 5 6 7 8 6 6 10 6 5 5 5 5 5 5 5 6 6 7 7 7 7 8 9 10 10 10 11 12 12 12 12 12 12 12 12
3 3 3 3 4 4 5 5 6 6 7 7 7 6 5 5 5 6 6 5 5 5 5 6 7 7 7 6 7 8 9 10 10 11 12 12 12 11 11 12 13 13 12
3 3 3 3 4 4 5 5 6 6 7 7 6 6 6 6 6 6 6 5 5 6 6 6 7 10 12 9 8 8 9 10 11 11 14 13 11 10 10 10 11 12 11
3 3 4 4 4 4 5 6 6 6 7 7 6 6 6 6 6 6 6 6 7 7 8 8 7 8 11 12 11 11 13 16 15 12 11 9 9 9 9 10 9 10 10
3 4 4 4 4 5 5 6 6 7 7 6 6 6 6 6 6 6 6 6 6 6 7 7 9 10 12 11 13 14 15 17 17 14 7 5 6 7 8 7 9 8 9
Wind_Direction
168 162 158 156 156 154 151 147 143 139 133 115 70 23 3 354 348 336 335 329 323 319 317 313 310 309 304 302 297 290 285 283 285 290 291 295 296 296 297 294 291 289 287
177 173 172 171 172 174 170 165 163 161 158 154 151 334 339 334 331 325 321 319 316 314 315 312 310 310 305 302 298 295 292 289 288 292 294 296 295 297 297 296 293 288 284
184 183 184 185 187 188 182 177 179 180 182 188 225 287 312 317 315 311 310 308 307 307 306 305 306 306 303 302 300 296 294 293 290 290 293 296 295 296 298 295 293 289 285
191 193 196 197 197 194 187 185 188 192 198 207 227 262 291 300 297 299 303 303 301 299 299 298 299 299 299 302 298 296 296 296 293 291 292 296 297 298 295 296 298 298 297
197 202 206 203 198 192 189 189 190 199 208 220 235 255 272 282 284 300 304 300 299 300 297 295 293 295 294 293 291 295 297 294 294 292 291 294 297 302 301 304 299 301 297
202 208 208 198 192 192 191 189 193 199 207 220 232 242 258 264 284 293 299 300 298 295 296 297 295 289 290 293 293 292 291 289 290 289 289 289 294 298 299 298 299 298 297
201 203 198 194 196 196 191 191 199 202 208 223 233 239 251 264 278 290 296 297 292 289 290 292 292 292 294 292 294 294 290 284 280 280 282 284 289 292 293 292 288 288 288
201 205 201 199 200 194 192 200 202 202 210 223 231 243 254 260 276 291 297 291 284 282 283 286 289 292 293 295 293 289 285 282 279 276 274 277 278 279 278 280 281 282 282
205 208 203 199 197 193 199 203 201 204 213 222 230 237 249 263 278 289 291 288 281 283 284 283 285 288 292 296 295 292 290 287 285 279 276 275 275 276 275 277 278 280 282
210 209 199 193 194 197 201 199 198 204 217 225 235 238 249 260 273 282 288 282 283 286 285 284 284 290 296 299 298 295 293 295 296 295 289 284 280 277 275 270 271 273 277
201 188 185 189 193 194 190 191 192 204 219 231 243 246 247 252 266 275 280 276 281 289 293 295 296 301 302 303 305 302 302 308 308 303 298 292 288 283 278 272 267 265 269
174 180 184 183 182 179 182 187 193 204 220 233 242 250 241 242 251 265 275 281 289 291 293 295 299 307 311 313 312 308 312 314 306 300 296 294 293 293 292 289 283 276 270
172 183 180 174 178 177 186 191 196 205 224 235 236 246 245 239 252 268 279 286 289 288 288 298 310 316 317 314 311 315 319 312 306 301 297 296 298 298 297 293 288 281 276
181 185 178 180 185 186 197 201 205 209 219 229 235 243 247 249 253 258 265 275 283 289 303 317 318 317 317 313 314 317 313 306 305 299 297 298 299 297 292 290 289 288 284
185 184 185 191 196 196 206 213 216 223 224 228 233 237 244 251 250 264 279 286 296 311 335 321 314 317 319 319 318 316 312 310 307 305 303 302 301 299 297 296 291 287 282
183 186 188 191 194 204 214 232 238 242 247 248 248 244 242 248 268 277 285 293 311 333 334 301 303 307 309 313 316 316 315 314 312 309 304 302 302 303 302 300 296 291 286
186 182 185 191 195 204 214 229 246 246 254 261 264 268 268 271 273 277 283 300 339 356 293 279 286 294 298 302 304 306 308 310 309 305 303 305 304 303 302 301 300 296 292
178 176 186 196 205 212 220 231 242 252 260 257 262 271 276 275 274 274 285 315 286 268 258 270 278 284 289 293 296 300 302 305 305 304 304 304 304 304 304 302 301 299 297
176 180 189 201 214 224 231 236 241 245 253 261 268 270 271 283 282 274 283 246 263 264 259 264 270 277 281 285 288 292 295 297 300 302 301 303 306 306 305 303 301 299 298
183 192 194 208 219 226 230 237 243 246 251 254 257 261 257 253 241 236 227 234 244 253 258 263 269 272 277 280 284 288 292 294 298 299 302 305 308 309 307 305 304 304 302
178 189 198 218 229 234 238 242 247 250 252 255 256 256 250 244 247 244 240 239 242 252 259 267 272 275 274 276 280 284 288 291 294 298 301 307 311 311 309 306 307 306 307
177 194 208 225 235 241 245 249 250 252 255 259 262 266 270 264 255 250 247 246 244 247 254 262 267 268 270 273 278 283 285 288 292 297 302 307 310 312 312 311 313 315 316
191 206 220 231 240 246 250 251 251 253 255 257 260 260 255 248 247 249 250 251 250 251 251 251 259 266 265 264 268 272 276 280 287 293 297 301 310 314 315 316 318 321 324
199 216 232 241 245 249 253 256 255 254 255 255 253 253 252 251 251 253 254 255 255 256 253 250 254 262 271 275 273 271 269 273 279 281 286 294 306 312 315 318 320 326 329
208 223 236 245 249 254 259 261 260 258 256 255 254 252 252 252 253 256 256 255 260 261 263 263 261 266 271 275 277 278 279 282 282 279 282 290 303 311 316 320 326 332 338
221 231 240 245 249 252 256 261 262 261 259 257 254 252 252 253 256 259 259 257 259 264 268 267 264 269 276 280 281 282 284 286 288 287 282 290 303 315 326 328 336 343 350